Terminal Aerodrome Forecast
Issued by NWS

Home | Current Version | Previous Version | Text Only | Print | Product List | Glossary Off
Versions: 1 2 3 4 5 6 7 8 9 10 11 12 13

000
FTUS45 KGGW 210500
TAFGDV
TAF
KGDV 210520Z 2106/2206 VRB05KT P6SM SCT250
     FM211700 27007KT P6SM SCT150
     FM220200 09007KT P6SM SKC
      AMD LTD TO CLD VIS AND WIND=

USA.gov is the U.S. government's official web portal to all federal, state and local government web resources and services.